Home   Weather   Amman   Past weeks
Flag for Jordan

Past Weather in Amman, Jordan — Yesterday and Last 2 Weeks

Now
68 °F

Clear.


Feels Like: 68 °F
Forecast: 92 / 61 °F
Wind: 3 mph from West

Location: Amman Airport

Current Time: May 27, 2019 at 6:15:19 am

Latest Report: May 27, 2019 at 5:30 am


Visibility: 5 mi

Pressure: 29.98 "Hg (27.26 "Hg at 816m altitude)

Humidity: 16%

Dew Point: 19 °F

Location of AmmanLocation

Past Weather in Amman — Graph

°F

Amman Temperature Yesterday

Maximum temperature yesterday: 90 °F (at 2:00 pm)
Minimum temperature yesterday: 68 °F (at 3:00 am)
Average temperature yesterday: 77 °F

High & Low Weather Summary for the Past Weeks

 TemperatureHumidityPressure
High102 °F (May 24, 2:00 pm)78% (May 20, 9:00 am)30.12 "Hg (May 20, 9:00 am)
Low59 °F (May 20, 5:00 am)2% (May 22, 10:00 am)29.83 "Hg (May 15, 4:00 pm)
Average80 °F25%29.97 "Hg
* Reported May 12 5:00 am — May 27 5:00 am, Amman. Weather by CustomWeather, © 2019

Note: Actual official high and low records may vary slightly from our data, if they occured in-between our weather recording intervals... More about our weather records

Advertising

Amman Weather History for the Previous 24 Hours

Scroll right to see more
 ConditionsComfort  
Time TempWeatherWind HumidityBarometerVisibility
5:00 am
Mon, May 27
63 °FClear.5 mph20%29.98 "Hg3 mi
4:00 am63 °FClear.No wind20%29.98 "Hg4 mi
3:00 am64 °FClear.No wind24%29.98 "Hg4 mi
2:00 am66 °FClear.No wind21%29.98 "Hg4 mi
1:00 am70 °FClear.No wind18%29.98 "Hg4 mi
12:00 am70 °FClear.No wind17%30.01 "Hg4 mi
11:00 pm
Sun, May 26
70 °FClear.No wind17%30.01 "Hg4 mi
10:00 pm72 °FClear.No wind12%30.01 "Hg4 mi
9:00 pm75 °FClear.6 mph22%29.98 "Hg4 mi
8:00 pm77 °FClear.7 mph30%29.98 "Hg4 mi
7:00 pm81 °FClear.9 mph30%29.98 "Hg4 mi
6:00 pm82 °FHaze.9 mph23%29.98 "Hg3 mi
5:00 pm84 °FHaze.7 mph18%29.98 "Hg3 mi
4:00 pm88 °FHaze.10 mph10%29.98 "Hg3 mi
3:00 pm88 °FHaze.14 mph11%30.01 "Hg3 mi
2:00 pm90 °FClear.16 mph9%30.01 "Hg4 mi
1:00 pm86 °FClear.8 mph13%30.04 "Hg4 mi
12:00 pm84 °FClear.8 mph13%30.04 "Hg4 mi
11:00 am84 °FClear.5 mph10%30.04 "Hg4 mi
10:00 am82 °FClear.5 mph10%30.04 "Hg4 mi
9:00 am77 °FClear.5 mph13%30.04 "Hg4 mi
8:00 am73 °FClear.No wind10%30.04 "Hg4 mi
7:00 am70 °FClear.14 mph12%30.01 "Hg5 mi
6:00 am68 °FClear.5 mph20%30.01 "Hg5 mi
Weather by CustomWeather, © 2019

See weather overview